timestamp,surface_pressure_avg,surface_temp_avg,battery_voltage,lat,long
2022-02-28 00:09:01+00:00,283.6664,1.07,12.17,47.84626,-54.09684
2022-02-28 00:19:01+00:00,282.558,1.09,12.17,47.84626,-54.09684
2022-02-28 00:29:01+00:00,272.6731,1.09,12.17,47.84626,-54.09684
2022-02-28 00:39:01+00:00,261.2631,1.08,12.17,47.84626,-54.09684
2022-02-28 00:49:01+00:00,259.3414,1.09,12.17,47.84626,-54.09684
2022-02-28 00:59:01+00:00,260.7814,1.09,12.17,47.84626,-54.09684
2022-02-28 01:09:01+00:00,253.4164,1.09,12.17,47.84626,-54.09684
2022-02-28 01:19:01+00:00,246.8531,1.08,12.17,47.84626,-54.09684
2022-02-28 01:29:01+00:00,245.7047,1.08,12.17,47.84626,-54.09684
2022-02-28 01:39:01+00:00,242.3331,1.09,12.17,47.84626,-54.09684
2022-02-28 01:49:01+00:00,236.6514,1.1,12.17,47.84626,-54.09684
2022-02-28 01:59:01+00:00,232.3047,1.1,12.17,47.84626,-54.09684
2022-02-28 02:09:01+00:00,229.1948,1.1,12.17,47.84626,-54.09684
2022-02-28 02:19:01+00:00,225.0031,1.1,12.17,47.84626,-54.09684
2022-02-28 02:29:01+00:00,218.3931,1.1,12.17,47.84626,-54.09684
2022-02-28 02:39:01+00:00,210.6815,1.1,12.17,47.84626,-54.09684
2022-02-28 02:49:01+00:00,209.8515,1.1,12.17,47.84626,-54.09684
2022-02-28 02:59:01+00:00,211.2564,1.1,12.17,47.84626,-54.09684
2022-02-28 03:09:01+00:00,209.9664,1.1,12.17,47.84626,-54.09684
2022-02-28 03:19:00+00:00,210.9781,1.1,12.17,47.84626,-54.09684
2022-02-28 03:29:00+00:00,212.9865,1.1,12.17,47.84626,-54.09684
2022-02-28 03:39:00+00:00,211.6797,1.1,12.17,47.84626,-54.09684
2022-02-28 03:49:00+00:00,211.7431,1.09,12.17,47.84626,-54.09684
2022-02-28 03:59:00+00:00,215.0115,1.07,12.17,47.84626,-54.09684
2022-02-28 04:09:00+00:00,215.4181,1.05,12.17,47.84626,-54.09684
2022-02-28 04:19:00+00:00,215.5498,1.0,12.17,47.84626,-54.09684
2022-02-28 04:29:00+00:00,220.6048,1.0,12.17,47.84626,-54.09684
2022-02-28 04:39:00+00:00,224.3647,1.0,12.17,47.84626,-54.09684
2022-02-28 04:49:00+00:00,226.2798,1.0,12.17,47.84626,-54.09684
2022-02-28 04:59:00+00:00,232.4581,1.0,12.17,47.84626,-54.09684
2022-02-28 05:09:00+00:00,239.7381,1.0,12.17,47.84626,-54.09684
2022-02-28 05:19:01+00:00,240.5281,1.0,12.17,47.84626,-54.09684
2022-02-28 05:29:01+00:00,240.2614,1.0,12.17,47.84626,-54.09684
2022-02-28 05:39:01+00:00,242.2298,1.0,12.17,47.84626,-54.09684
2022-02-28 05:49:01+00:00,244.5864,1.0,12.17,47.84626,-54.09684
2022-02-28 05:59:01+00:00,247.3848,1.0,12.17,47.84626,-54.09684
2022-02-28 06:09:01+00:00,251.368,1.0,12.17,47.84626,-54.09684
2022-02-28 06:19:00+00:00,256.1431,1.0,12.17,47.84626,-54.09684
2022-02-28 06:29:00+00:00,263.5014,1.0,12.17,47.84626,-54.09684
2022-02-28 06:39:00+00:00,273.0797,1.0,12.17,47.84626,-54.09684
2022-02-28 06:49:00+00:00,279.1297,1.0,12.17,47.84626,-54.09684
2022-02-28 06:59:00+00:00,283.9781,1.07,12.17,47.84626,-54.09684
2022-02-28 07:09:00+00:00,293.46299999999997,1.0,12.17,47.84626,-54.09684
2022-02-28 07:19:00+00:00,304.7596,0.8,12.17,47.84626,-54.09684
2022-02-28 07:29:00+00:00,310.4997,0.8,12.17,47.84626,-54.09684
2022-02-28 07:39:00+00:00,317.1847,1.0,12.17,47.84626,-54.09684
2022-02-28 07:49:00+00:00,326.173,1.0,12.17,47.84626,-54.09684
2022-02-28 07:59:00+00:00,333.8279,1.0,12.17,47.84626,-54.09684
2022-02-28 08:09:00+00:00,339.0030000000001,0.99,12.17,47.84626,-54.09684
2022-02-28 08:19:01+00:00,344.5596,1.0,12.17,47.84626,-54.09684
2022-02-28 08:29:01+00:00,352.31300000000016,1.0,12.17,47.84626,-54.09684
2022-02-28 08:39:01+00:00,355.7214,1.05,12.17,47.84626,-54.09684
2022-02-28 08:49:01+00:00,355.8412,1.07,12.17,47.84626,-54.09684
2022-02-28 08:59:01+00:00,357.8446,1.07,12.17,47.84626,-54.09684
2022-02-28 09:09:01+00:00,361.5662,1.07,12.17,47.84626,-54.09684
2022-02-28 09:19:00+00:00,363.9896,1.08,12.09,47.84626,-54.09684
2022-02-28 09:29:00+00:00,367.2562,1.08,12.09,47.84626,-54.09684
2022-02-28 09:39:00+00:00,370.9196,1.09,12.09,47.84626,-54.09684
2022-02-28 09:49:00+00:00,372.8629,1.08,12.09,47.84626,-54.09684
2022-02-28 09:59:00+00:00,372.8362,1.08,12.09,47.84626,-54.09684
2022-02-28 10:09:00+00:00,373.0912,1.08,12.09,47.84626,-54.09684
2022-02-28 10:19:01+00:00,370.6612,1.09,12.09,47.84626,-54.09684
2022-02-28 10:29:01+00:00,370.24800000000016,1.08,12.09,47.84626,-54.09684
2022-02-28 10:39:01+00:00,372.2079,1.08,12.09,47.84626,-54.09684
2022-02-28 10:49:01+00:00,369.5729,1.08,12.09,47.84626,-54.09684
2022-02-28 10:59:01+00:00,362.6712,1.09,12.09,47.84626,-54.09684
2022-02-28 11:09:01+00:00,363.2195,1.09,12.09,47.84626,-54.09684
2022-02-28 11:19:00+00:00,363.9663,1.09,12.09,47.84626,-54.09684
2022-02-28 11:29:00+00:00,358.1363,1.09,12.09,47.84626,-54.09684
2022-02-28 11:39:00+00:00,349.7196,1.09,12.09,47.84626,-54.09684
2022-02-28 11:49:00+00:00,347.4763,1.09,12.09,47.84626,-54.09684
2022-02-28 11:59:00+00:00,344.963,1.09,12.09,47.84626,-54.09684
2022-02-28 12:09:00+00:00,335.4163,1.07,12.09,47.84626,-54.09684
2022-02-28 12:19:00+00:00,325.613,1.08,12.09,47.84626,-54.09684
2022-02-28 12:29:00+00:00,319.2796,1.09,12.09,47.84626,-54.09684
2022-02-28 12:39:00+00:00,313.4664,1.09,12.09,47.84626,-54.09684
2022-02-28 12:49:00+00:00,304.228,1.08,12.09,47.84626,-54.09684
2022-02-28 12:59:00+00:00,295.1997,1.09,12.09,47.84626,-54.09684
2022-02-28 13:09:00+00:00,287.243,1.09,12.09,47.84626,-54.09684
2022-02-28 13:19:00+00:00,279.2147,1.08,12.09,47.84626,-54.09684
2022-02-28 13:29:00+00:00,275.6298,1.04,12.09,47.84626,-54.09684
2022-02-28 13:39:00+00:00,273.1248,1.0,12.09,47.84626,-54.09684
2022-02-28 13:49:00+00:00,266.2714,1.0,12.09,47.84626,-54.09684
2022-02-28 13:59:00+00:00,263.0131,0.97,12.09,47.84626,-54.09684
2022-02-28 14:09:00+00:00,263.3614,0.97,12.09,47.84626,-54.09684
2022-02-28 14:19:01+00:00,255.763,1.0,12.09,47.84626,-54.09684
2022-02-28 14:29:01+00:00,246.7498,0.97,12.09,47.84626,-54.09684
2022-02-28 14:39:01+00:00,246.8014,0.99,12.09,47.84626,-54.09684
2022-02-28 14:49:01+00:00,243.9447,1.0,12.09,47.84626,-54.09684
2022-02-28 14:59:01+00:00,233.4748,1.0,12.09,47.84626,-54.09684
2022-02-28 15:09:01+00:00,226.9731,1.0,12.09,47.84626,-54.09684
2022-02-28 15:19:01+00:00,226.0198,1.0,12.09,47.84626,-54.09684
2022-02-28 15:29:01+00:00,222.0915,1.04,12.09,47.84626,-54.09684
2022-02-28 15:39:01+00:00,217.6281,1.08,12.09,47.84626,-54.09684
2022-02-28 15:49:01+00:00,217.2631,1.1,12.09,47.84626,-54.09684
2022-02-28 15:59:01+00:00,214.8048,1.1,12.09,47.84626,-54.09684
2022-02-28 16:09:01+00:00,210.2431,1.1,12.09,47.84626,-54.09684
2022-02-28 16:19:00+00:00,209.7481,1.1,12.09,47.84626,-54.09684
2022-02-28 16:29:00+00:00,209.4915,1.1,12.09,47.84626,-54.09684
2022-02-28 16:39:00+00:00,205.7364,1.12,12.09,47.84626,-54.09684
2022-02-28 16:49:00+00:00,206.5414,1.15,12.09,47.84626,-54.09684
2022-02-28 16:59:00+00:00,211.3748,1.17,12.09,47.84626,-54.09684
2022-02-28 17:09:00+00:00,212.3864,1.18,12.09,47.84626,-54.09684
2022-02-28 17:19:00+00:00,210.8965,1.19,12.17,47.84626,-54.09684
2022-02-28 17:29:00+00:00,215.8414,1.19,12.17,47.84626,-54.09684
2022-02-28 17:39:00+00:00,224.8214,1.19,12.17,47.84626,-54.09684
2022-02-28 17:49:00+00:00,225.5531,1.2,12.17,47.84626,-54.09684
2022-02-28 17:59:00+00:00,225.2731,1.2,12.17,47.84626,-54.09684
2022-02-28 18:09:00+00:00,230.4981,1.2,12.17,47.84626,-54.09684
2022-02-28 18:19:00+00:00,237.1031,1.2,12.17,47.84626,-54.09684
2022-02-28 18:29:00+00:00,241.5181,1.2,12.17,47.84626,-54.09684
2022-02-28 18:39:00+00:00,243.2997,1.2,12.17,47.84626,-54.09684
2022-02-28 18:49:00+00:00,246.5181,1.24,12.17,47.84626,-54.09684
2022-02-28 18:59:00+00:00,254.8331,1.2,12.17,47.84626,-54.09684
2022-02-28 19:09:00+00:00,257.2664,1.2,12.17,47.84626,-54.09684
2022-02-28 19:19:01+00:00,258.8531,1.2,12.17,47.84626,-54.09684
2022-02-28 19:29:01+00:00,267.8964,1.2,12.17,47.84626,-54.09684
2022-02-28 19:39:01+00:00,281.0947,1.2,12.17,47.84626,-54.09684
2022-02-28 19:49:01+00:00,284.4048,1.2,12.17,47.84626,-54.09684
2022-02-28 19:59:01+00:00,292.388,1.27,12.17,47.84626,-54.09684
2022-02-28 20:09:01+00:00,303.4664,1.2,12.17,47.84626,-54.09684
2022-02-28 20:19:00+00:00,311.6281,1.2,12.09,47.84626,-54.09684
2022-02-28 20:29:00+00:00,313.658,1.22,12.09,47.84626,-54.09684
2022-02-28 20:39:00+00:00,324.6163,1.22,12.09,47.84626,-54.09684
2022-02-28 20:49:00+00:00,329.3029,1.22,12.09,47.84626,-54.09684
2022-02-28 20:59:00+00:00,332.0547,1.24,12.09,47.84626,-54.09684
2022-02-28 21:09:00+00:00,336.7947,1.24,12.09,47.84626,-54.09684
2022-02-28 21:19:01+00:00,341.4763,1.24,12.17,47.84626,-54.09684
2022-02-28 21:29:01+00:00,342.4713,1.25,12.17,47.84626,-54.09684
2022-02-28 21:39:01+00:00,347.9996,1.25,12.17,47.84626,-54.09684
2022-02-28 21:49:01+00:00,352.6863,1.26,12.17,47.84626,-54.09684
2022-02-28 21:59:01+00:00,357.00800000000015,1.27,12.17,47.84626,-54.09684
2022-02-28 22:09:01+00:00,360.8263,1.28,12.17,47.84626,-54.09684
2022-02-28 22:19:01+00:00,363.8096,1.25,12.17,47.84626,-54.09684
2022-02-28 22:29:01+00:00,362.2346,1.27,12.17,47.84626,-54.09684
2022-02-28 22:39:01+00:00,364.2796,1.29,12.17,47.84626,-54.09684
2022-02-28 22:49:01+00:00,366.158,1.27,12.17,47.84626,-54.09684
2022-02-28 22:59:01+00:00,359.30300000000005,1.25,12.17,47.84626,-54.09684
2022-02-28 23:09:01+00:00,355.5379,1.27,12.17,47.84626,-54.09684
2022-02-28 23:19:00+00:00,355.9596,1.25,12.17,47.84626,-54.09684
2022-02-28 23:29:00+00:00,352.0145,1.27,12.17,47.84626,-54.09684
2022-02-28 23:39:00+00:00,343.9646,1.27,12.17,47.84626,-54.09684
2022-02-28 23:49:00+00:00,336.1263,1.27,12.17,47.84626,-54.09684
2022-02-28 23:59:00+00:00,337.788,1.27,12.17,47.84626,-54.09684
